Hourly Weather Roundup
Issued by NWS Central Illinois

Home | Current Version | Previous Version | Text Only | Print | Product List | Glossary On
Versions: 1 2 3 4 5 6 7 8 9 10 11 12 13 14 15 16 17 18 19 20 21 22 23 24 25 26 27 28 29 30 31 32 33 34 35 36 37 38 39 40 41 42 43 44 45 46 47 48 49 50
803
NZUS43 KILX 270110
HWRILX

AREA WEATHER ROUNDUP
NATIONAL WEATHER SERVICE, LINCOLN IL
700 PM CST SUN FEB 26 2017


CITY           SKY/WX    TMP DP  RH WIND       PRES   REMARKS
BLOOMINGTON    CLEAR     37  26  64 SW13      30.05R WCI  29
CHAMPAIGN      MOCLDY    42  21  43 S9        30.08R
DECATUR        PTCLDY    39  22  50 S8        30.08R WCI  33
EFFINGHAM      CLOUDY    44  23  44 CALM      30.11S
FLORA          CLOUDY    46  26  46 SW7       30.11S
GALESBURG      PTCLDY    40  30  69 S8          N/A  WCI  34
JACKSONVILLE   PTCLDY    39  22  49 S7        30.05R WCI  34
LACON          CLEAR     41  28  60 SW9       30.01R
LAWRENCEVILLE  CLOUDY    43  24  47 S5        30.12F
LITCHFIELD     CLOUDY    40  28  62 S9        30.07F WCI  34
$$


CITY           SKY/WX    TMP DP  RH WIND       PRES   REMARKS
LINCOLN        CLEAR     39  26  59 S3        30.06R
MACOMB         CLEAR     41  25  53 S10       30.03R WCI  35
MATTOON        CLOUDY    43  23  45 S5        30.08S
MT CARMEL AP   CLOUDY    45  22  41 S8        30.12S
OLNEY-NOBLE AP CLOUDY    45  25  45 S3        30.12R
PARIS          PTCLDY    38  25  60 S7        30.10F WCI  33
PEORIA         CLEAR     41  24  51 SW12      30.03R WCI  34
PONTIAC        CLEAR     40  25  54 SW12      30.04R WCI  34
RANTOUL        CLOUDY    44  27  50 SW12G21   30.08R
SPRINGFIELD    CLEAR     42  22  44 S13       30.06R
TAYLORVILLE    CLOUDY    41  23  48 S10       30.08R WCI  35
$$

...REGIONAL REPORTS...


CITY           SKY/WX    TMP DP  RH WIND       PRES   REMARKS
CHICAGO O`HARE CLOUDY    45  26  47 SW16G22   29.98R
KANKAKEE       CLEAR     39  22  51 SW16      30.04S WCI  30
MOLINE         MOCLDY    43  29  57 S9        29.97R
MOUNT STERLING CLEAR     37  23  56 SE5       30.03R WCI  33
MOUNT VERNON   CLOUDY    42  32  67 S3        30.12R
PITTSFIELD     PTCLDY    42  28  58 S8        30.06R
QUINCY         CLEAR     41  22  46 S9        30.02R
ROCKFORD       PTCLDY    40  29  64 SW9       29.98R WCI  34
$$


CITY           SKY/WX    TMP DP  RH WIND       PRES   REMARKS
BURLINGTON     CLOUDY    45  30  55 NW7       30.00R
CEDAR RAPIDS   CLEAR     32  25  75 NW9       29.97R WCI  24
DES MOINES     PTCLDY    38  19  46 N5        29.98R WCI  34
KIRKSVILLE     CLEAR     39  21  48 S8        30.00R WCI  33
OTTUMWA        MOCLDY    41  23  48 CALM      29.98R
ST LOUIS       CLOUDY    43  32  65 S9        30.09R
$$


CITY           SKY/WX    TMP DP  RH WIND       PRES   REMARKS
TERRE HAUTE    CLOUDY    42  22  44 S5        30.11F
EVANSVILLE     CLOUDY    48  22  35 S3        30.14F
INDIANAPOLIS   CLOUDY    39  18  42 S8        30.12S WCI  33
LAFAYETTE      CLOUDY    41  22  46 SW6       30.09R
MADISON        CLEAR     36  23  59 SW3       29.92R
MILWAUKEE      PTCLDY    40  23  50 SW7       29.93R
$$






USA.gov is the U.S. government's official web portal to all federal, state and local government web resources and services.